Lapse_Rate
6.5 6.5 6.5 6.5 6.5 6.5 6.5 6.5 6.5 6.5 6.5 6.5 6.5 6.5 6.9 7.3 7.5 7.3 7.3 7.4 6.4 5.5 4.5 4.4 4.8 3.9 2.5 1.6 0.8 1.2 1.6 1.6 1.4 1.2 1.2 1.4 2.5 2.9 2.6 2.8 2.4 1.9 1.8 1.9
6.5 6.5 6.5 6.5 6.5 6.5 6.5 6.5 6.5 6.5 6.5 6.5 7.0 7.3 7.2 7.4 7.4 7.3 7.4 7.6 6.1 6.2 6.5 5.6 4.9 4.3 3.9 2.8 2.3 2.4 1.5 0.6 0.4 0.6 0.9 1.7 1.6 1.7 1.9 1.7 1.4 1.6 1.7 1.5
6.5 6.5 6.5 6.5 6.5 6.5 6.5 6.5 6.5 6.5 6.5 6.5 6.5 6.6 7.1 7.3 7.5 7.4 7.6 7.6 5.5 6.2 5.5 5.6 5.5 5.2 4.5 3.9 3.5 2.8 1.9 1.7 1.7 1.9 1.6 1.6 1.5 1.4 1.0 0.9 1.0 1.1 1.0 1.1
6.5 6.5 6.5 6.5 6.5 6.5 6.5 6.5 6.5 6.5 6.5 6.6 6.8 7.3 7.5 7.8 7.6 7.7 7.6 7.0 6.4 5.2 5.4 5.4 5.2 4.9 4.3 4.0 4.0 3.4 2.9 2.0 1.8 2.2 1.9 1.5 1.5 1.3 0.5 0.5 0.2 0.1 -0.2 0.7
6.5 6.5 6.5 6.5 6.5 6.5 6.5 6.5 6.5 6.5 6.5 6.9 7.2 7.3 7.3 7.4 7.3 7.6 6.7 6.0 5.5 5.2 4.9 4.9 4.9 4.9 5.0 4.5 3.9 3.7 3.6 3.4 3.2 2.7 2.2 2.2 1.4 1.2 1.3 0.4 -0.9 -0.5 0.1 0.6
6.5 6.5 6.5 6.5 6.5 7.0 6.6 6.5 6.7 6.8 6.6 6.8 7.0 6.5 6.5 7.7 6.3 6.1 6.3 5.9 4.9 4.6 5.4 6.1 4.9 4.8 4.9 5.1 5.6 5.3 4.2 3.8 3.6 3.5 3.6 3.4 2.7 1.7 0.8 1.5 -0.3 0.7 0.6 0.9
6.5 6.5 6.5 6.5 6.7 7.1 6.5 6.5 6.9 7.2 7.1 7.1 6.5 7.1 7.2 6.8 6.4 6.3 5.6 5.0 5.4 5.3 4.6 4.7 5.2 5.6 5.6 5.3 4.9 4.0 4.1 4.2 4.1 4.0 3.7 3.6 2.6 1.8 1.5 1.2 0.7 0.6 1.3 2.0
6.5 6.5 6.5 6.9 6.7 6.5 6.7 7.3 7.3 7.4 7.4 7.3 7.5 7.2 6.8 6.4 5.9 5.4 5.1 5.0 4.7 4.9 4.5 4.5 5.1 6.1 5.7 5.1 4.2 3.9 3.9 3.4 3.4 3.4 2.9 3.0 2.6 1.3 2.4 2.7 2.7 2.1 2.2 1.4
6.5 6.5 6.8 7.3 7.0 7.3 7.4 7.4 7.4 7.5 7.0 7.3 6.9 6.8 6.4 6.2 5.8 5.7 5.4 5.1 5.1 5.3 4.7 3.4 3.0 4.3 5.0 4.1 4.9 5.0 5.1 5.0 4.9 4.5 4.0 3.7 3.9 2.8 3.4 3.5 4.0 3.3 1.7 2.4
6.5 6.5 6.7 7.2 7.4 7.1 7.3 7.5 6.7 6.6 6.8 7.0 7.5 6.9 5.6 4.7 5.0 5.0 4.6 4.6 5.2 5.7 5.1 3.3 2.1 1.3 1.4 1.8 3.2 4.7 4.6 4.8 4.9 5.2 5.1 4.9 4.5 4.7 5.2 4.5 4.5 4.1 3.1 3.4
6.5 6.6 7.0 7.3 7.4 7.2 6.4 6.1 6.2 6.3 6.4 6.6 7.0 6.6 6.5 5.7 5.0 4.6 5.0 4.6 4.5 4.6 4.5 3.8 3.9 3.5 2.3 2.2 2.4 2.4 2.6 2.0 2.3 2.5 3.4 3.6 3.8 4.7 5.3 5.7 5.0 4.5 4.0 4.2
6.5 6.9 6.9 7.1 7.3 6.2 6.7 6.1 5.6 6.1 6.5 6.4 6.5 7.0 6.2 4.8 4.4 4.9 4.9 4.5 4.6 4.4 4.5 3.7 3.4 3.0 2.7 3.1 3.9 4.5 4.5 3.4 3.2 3.2 3.0 2.2 2.5 2.7 2.6 2.6 3.0 3.2 3.2 2.9
6.9 7.6 6.5 6.9 5.7 5.3 6.2 5.5 5.3 5.5 5.4 6.1 6.2 6.6 6.1 4.3 3.6 3.5 4.1 4.1 4.2 4.1 4.5 4.0 3.8 3.5 3.1 3.1 3.3 3.3 4.0 4.2 4.4 4.6 5.0 5.3 4.0 2.6 2.7 3.1 3.4 3.2 3.4 3.5
5.5 5.7 6.5 5.9 6.5 4.8 5.1 4.9 5.0 5.1 5.1 5.5 5.9 5.9 6.0 5.6 4.7 4.2 4.1 3.5 3.6 3.5 3.7 3.5 3.2 2.2 1.9 2.6 3.3 3.5 4.1 3.9 4.1 4.0 3.9 4.2 4.4 4.3 4.3 4.5 5.1 5.0 4.4 4.4
5.7 4.3 5.9 4.9 4.4 4.1 4.3 4.7 5.5 6.0 6.0 6.0 6.0 6.3 6.2 6.0 5.3 4.7 3.7 3.5 3.6 3.6 3.2 3.0 2.3 2.5 3.1 3.4 3.4 3.6 4.4 4.1 4.2 3.5 3.3 3.6 3.6 3.8 4.2 4.6 4.9 5.6 5.4 4.4
4.8 4.5 4.1 4.6 4.4 4.2 4.6 4.8 5.6 6.1 6.3 6.7 6.3 5.8 5.3 5.0 4.8 4.0 3.6 3.6 4.1 4.3 3.4 3.2 3.5 3.4 3.6 3.6 3.5 3.5 2.7 3.8 4.2 3.3 3.2 3.2 3.4 3.8 4.2 4.2 4.2 4.3 4.2 4.1
5.2 5.5 5.0 5.0 4.8 4.8 5.2 6.4 6.9 6.9 6.7 6.3 5.7 5.2 4.8 4.7 4.2 3.8 3.6 3.6 3.8 4.4 4.6 4.2 4.2 3.7 4.3 4.0 4.1 4.1 3.1 2.9 3.3 3.5 3.7 3.5 3.7 4.0 4.4 4.4 4.4 4.0 3.7 3.4
4.3 4.9 4.6 5.2 4.5 4.9 5.6 6.6 7.4 6.9 6.9 6.1 5.2 5.0 5.0 5.1 5.3 5.2 4.6 4.2 4.3 4.7 5.0 5.1 4.9 4.7 4.5 4.2 4.4 4.4 4.0 3.4 3.2 3.3 3.5 3.9 4.4 4.4 4.6 4.4 4.6 4.5 4.2 3.9
4.8 4.2 4.1 4.3 4.7 5.4 6.0 6.5 6.9 6.5 6.1 5.6 5.3 5.4 5.2 4.8 4.8 4.1 3.8 4.1 4.7 5.2 6.2 5.4 4.5 4.6 5.2 4.9 4.5 4.9 4.7 4.3 3.8 3.7 3.5 3.7 4.0 4.4 4.5 4.8 4.8 5.0 5.2 5.0
3.8 4.0 4.1 3.7 4.0 4.7 5.1 5.8 6.7 6.6 6.3 5.5 5.4 5.8 5.4 5.0 4.5 4.5 4.4 4.6 5.3 5.7 5.0 5.1 4.9 5.2 5.1 5.0 4.9 5.5 5.0 4.7 4.7 4.8 4.5 4.9 4.6 4.6 4.7 4.4 4.5 4.5 4.4 4.6
3.3 3.1 3.6 3.6 3.9 4.5 5.1 5.7 6.8 6.7 6.2 5.6 5.6 5.7 5.5 5.4 4.7 4.4 3.9 4.4 5.2 4.0 4.1 4.1 4.3 4.8 4.6 4.6 4.8 5.1 5.0 5.1 4.8 4.6 4.5 4.4 4.4 4.6 4.8 4.8 4.7 4.6 4.5 4.5
2.4 2.5 2.7 2.9 3.2 4.0 4.7 5.8 6.8 5.9 5.2 5.2 4.6 4.4 4.1 4.4 4.5 3.9 3.9 4.1 5.1 3.9 4.4 4.4 4.4 4.1 4.4 4.4 5.2 5.1 4.9 4.6 4.5 4.4 4.3 4.1 4.3 3.7 3.6 3.7 3.9 4.4 4.5 4.4
1.5 2.1 2.8 2.5 2.8 4.0 4.9 5.2 6.4 6.1 5.7 5.4 4.8 4.4 4.4 5.0 5.2 4.5 4.5 4.9 4.0 3.9 4.3 4.5 4.4 4.1 4.6 5.3 5.2 5.0 4.7 4.4 4.3 4.2 4.1 3.7 3.4 3.5 3.7 3.5 3.5 3.8 4.0 3.9
2.2 2.6 3.2 3.8 4.0 3.6 3.9 4.4 4.8 5.4 5.8 5.5 5.0 4.0 4.1 4.0 4.3 3.9 4.1 4.5 4.6 4.6 4.7 4.7 4.4 4.7 5.3 5.4 5.1 4.9 4.6 4.3 4.0 3.6 3.5 3.5 3.5 3.5 3.5 3.5 3.3 3.6 3.4 3.3
1.9 2.4 2.2 2.1 2.7 3.5 3.5 3.8 3.6 3.6 4.1 4.5 4.9 5.1 4.9 4.6 4.6 5.3 4.7 4.1 4.0 4.5 4.7 4.8 5.0 5.2 5.6 5.4 5.0 4.7 4.3 3.8 3.4 3.3 3.3 3.2 3.3 3.1 3.3 3.2 3.1 3.0 3.0 3.0
1.9 2.7 3.3 3.2 3.6 3.7 3.5 3.0 2.6 4.1 4.2 4.2 4.6 4.8 5.1 4.9 4.8 4.8 4.0 3.9 3.2 3.5 4.2 4.5 4.7 5.1 5.0 4.7 4.5 4.4 4.3 4.0 3.7 3.7 3.5 3.3 3.2 2.9 2.8 2.8 2.8 2.5 2.5 2.5
0.8 1.7 1.1 0.9 1.4 1.6 2.1 2.3 2.4 2.6 3.1 3.6 3.6 4.0 4.0 3.7 3.5 3.6 3.4 3.2 3.4 3.4 3.5 3.7 3.7 3.9 4.3 4.0 4.0 4.2 4.0 3.7 3.3 2.8 2.5 2.6 2.6 2.4 2.0 2.0 2.1 1.9 1.8 1.7
Wind_Speed
6 3 3 9 13 16 8 5 9 10 14 11 11 11 12 12 13 14 13 13 12 11 10 8 7 7 8 6 6 7 10 10 11 11 11 10 10 10 10 10 10 11 11 10
6 9 10 14 16 12 13 13 14 14 13 7 7 8 12 13 12 12 12 12 11 10 10 8 6 7 7 7 5 7 8 9 10 11 11 11 10 10 10 10 11 10 9 10
2 4 5 7 12 10 9 10 6 10 6 6 9 11 12 11 11 11 11 10 9 9 8 7 6 5 7 7 6 7 8 8 8 10 11 11 11 11 11 10 9 9 9 8
2 2 3 3 4 2 12 10 9 8 6 6 6 6 10 11 11 11 11 10 10 8 7 5 4 5 6 6 6 8 9 8 7 8 8 9 10 9 9 10 10 10 9 9
1 4 3 3 3 2 4 7 8 6 5 5 3 1 9 11 11 10 10 9 9 7 6 4 3 4 6 6 6 6 6 8 9 9 9 9 9 10 8 8 8 8 7 8
1 2 2 2 1 3 3 3 6 5 7 7 2 3 6 9 9 11 9 8 9 9 6 4 3 2 3 4 5 5 5 6 7 7 8 9 9 9 5 7 6 5 6 6
3 3 2 1 1 3 1 4 4 5 6 6 5 5 4 6 8 8 8 11 10 9 8 7 4 3 4 3 2 2 4 7 8 7 7 8 8 6 7 8 8 7 7 7
1 1 2 1 3 2 4 4 4 4 4 4 5 3 3 5 7 8 10 11 11 9 9 9 7 3 5 6 3 2 1 2 2 4 4 5 7 5 7 7 7 6 5 3
2 2 2 1 2 3 2 4 2 2 2 3 3 2 2 3 5 6 8 8 9 9 10 11 11 9 8 7 3 3 4 5 5 4 4 5 6 5 5 5 5 4 4 4
3 3 2 1 3 3 2 4 3 3 2 1 3 4 4 2 4 6 7 7 6 7 9 10 10 11 9 8 7 4 3 4 4 5 5 5 4 5 6 6 6 6 6 5
1 2 3 4 2 3 4 4 3 2 2 2 2 2 3 4 4 3 3 4 5 6 7 8 8 9 9 9 7 5 4 4 3 2 1 2 3 4 5 5 5 5 5 5
4 9 2 8 9 6 5 4 3 2 1 1 1 3 3 4 3 3 3 3 4 5 5 5 6 7 8 9 8 6 4 3 2 1 1 2 2 2 5 6 6 9 6 5
3 9 4 10 7 3 4 3 2 1 2 2 2 0 2 2 1 3 2 2 3 3 3 3 4 5 5 6 7 8 6 5 4 4 3 3 2 2 2 2 8 9 11 11
10 12 6 7 4 5 3 2 1 1 1 0 0 1 2 3 4 1 1 1 1 2 2 3 4 4 5 6 6 6 6 6 4 4 4 4 4 4 3 3 4 3 7 10
10 1 3 10 8 5 3 2 3 3 2 2 1 2 3 5 4 3 2 0 0 1 1 2 2 2 4 4 5 5 4 4 4 3 3 3 3 3 3 4 5 6 4 4
9 7 8 8 8 7 5 4 3 3 2 2 2 1 0 1 3 3 2 0 2 3 2 1 1 1 2 2 3 3 3 6 6 3 3 3 2 3 3 3 3 4 3 3
14 8 8 8 9 9 7 5 4 4 2 2 2 1 1 1 2 2 2 2 2 3 3 2 2 2 2 2 2 1 2 3 5 4 4 4 3 3 3 3 3 3 3 3
3 7 9 8 11 10 8 6 5 4 3 3 2 2 2 4 4 3 3 2 3 4 5 4 3 3 3 2 3 2 2 2 2 3 3 4 4 4 4 3 3 3 2 2
6 9 8 8 9 8 7 6 5 4 4 4 4 4 4 4 4 3 2 4 4 5 4 5 4 4 4 3 3 3 2 2 2 3 3 4 3 3 3 3 3 3 3 3
9 8 8 8 6 6 5 4 4 4 3 4 3 4 5 5 3 4 4 5 6 4 1 4 5 5 4 5 6 3 3 3 3 3 3 3 3 3 3 4 4 3 3 3
10 10 9 9 7 5 5 4 4 4 3 4 6 6 5 4 4 4 4 5 3 3 5 7 6 5 4 4 5 4 4 3 3 3 3 3 3 4 4 4 4 4 3 3
7 7 7 7 6 6 6 6 5 4 5 5 5 5 5 5 6 6 7 8 3 5 4 5 5 8 5 7 5 5 4 4 4 3 3 3 4 4 4 4 4 4 4 4
6 6 6 7 6 6 5 5 6 6 6 6 7 7 7 6 4 5 6 4 4 5 4 5 7 9 9 6 4 4 4 4 4 4 4 4 4 4 4 4 4 4 4 4
7 7 7 6 4 5 6 5 5 5 6 5 6 6 6 5 5 6 7 9 11 10 7 6 7 11 10 5 6 5 5 4 4 4 4 6 4 4 5 5 5 4 5 5
7 5 4 5 6 6 5 5 5 6 6 7 7 7 7 6 6 3 4 5 8 7 6 9 12 12 7 6 6 5 5 5 4 4 5 4 5 5 5 5 5 5 5 5
7 6 6 7 6 5 4 4 5 5 5 6 6 5 5 5 6 6 5 7 6 7 7 5 5 6 6 6 6 6 5 5 5 5 5 5 5 5 5 5 5 5 5 5
3 5 3 3 5 5 5 6 6 6 6 6 7 4 4 5 5 6 7 5 5 5 5 5 5 6 6 6 6 6 5 5 6 4 4 5 5 5 5 5 5 4 5 5
Wind_Direction
58 65 75 50 33 44 54 75 82 102 73 45 42 41 51 56 59 51 43 43 39 29 33 43 72 90 101 99 114 129 132 134 132 131 129 135 140 140 134 134 135 138 141 142
73 88 73 65 40 59 57 71 87 90 67 30 39 60 47 43 42 47 45 37 26 32 40 44 47 79 93 104 118 132 127 128 129 128 133 135 136 134 136 134 137 138 139 139
125 301 308 29 2 28 75 47 42 70 47 36 40 33 27 27 39 36 26 23 17 17 25 39 52 68 91 102 112 104 108 119 127 136 136 137 140 144 141 139 136 134 134 131
91 251 82 65 7 32 78 57 62 74 56 40 75 71 32 28 21 28 15 11 9 2 358 34 64 86 96 97 107 118 123 118 124 127 130 138 142 143 141 147 151 148 145 147
37 55 118 122 30 29 15 54 28 62 62 41 88 129 57 23 21 15 8 1 355 354 345 356 35 103 117 113 112 111 121 137 151 149 150 155 149 150 152 149 147 147 157 154
78 92 94 73 63 11 310 94 34 40 40 28 2 33 36 14 14 11 21 9 2 4 18 63 69 73 73 94 125 143 155 152 151 154 157 164 157 152 148 150 143 146 147 165
56 78 101 176 341 333 284 88 57 48 43 35 47 29 32 13 27 25 17 12 16 35 38 32 48 96 93 109 94 89 138 149 157 164 163 161 153 154 158 155 155 159 170 176
131 118 162 136 138 268 81 88 72 73 57 80 100 114 69 32 26 24 24 17 18 36 45 38 29 52 94 77 47 98 118 112 152 150 140 157 157 158 168 172 173 169 165 175
291 37 55 29 48 85 87 120 110 110 104 133 125 120 111 68 54 50 35 26 17 31 43 40 41 38 58 28 40 131 151 154 166 173 173 180 181 171 178 192 194 189 190 203
195 156 144 70 63 74 77 96 76 65 41 101 121 143 127 93 51 50 46 41 31 44 50 43 30 30 25 11 10 35 77 107 137 171 177 183 190 194 197 199 201 197 198 214
164 180 157 208 177 135 108 89 70 61 50 68 157 160 145 130 117 97 78 65 53 54 53 50 42 40 28 8 0 25 19 35 24 26 159 173 222 222 222 226 227 212 212 209
202 175 178 167 164 155 148 119 69 45 88 41 313 195 160 134 131 113 106 90 87 79 73 62 51 42 30 20 10 6 33 49 29 338 241 240 219 241 231 252 240 237 235 214
140 147 90 131 135 143 149 135 120 96 37 331 17 87 166 139 149 143 122 86 61 65 69 70 62 55 36 29 18 15 7 0 353 348 336 313 271 254 270 239 241 235 237 236
140 123 118 175 179 163 145 138 144 142 183 178 184 85 137 150 144 154 102 39 64 84 78 70 51 32 9 16 22 16 354 355 348 339 336 332 327 315 298 283 275 263 238 241
169 34 141 135 140 156 149 157 173 215 231 214 226 183 182 180 192 188 153 205 117 100 52 30 63 26 2 12 15 12 0 339 336 334 327 316 299 279 273 270 266 266 254 246
152 138 140 152 161 172 170 167 190 221 266 224 200 191 235 151 143 146 133 322 241 257 214 233 257 276 284 340 356 339 343 324 320 324 318 322 320 307 293 280 275 267 257 250
145 169 176 179 186 190 199 197 204 204 179 139 126 137 192 176 177 187 207 236 266 263 255 250 246 257 282 309 307 319 316 319 329 317 317 320 317 322 320 307 297 289 282 266
173 172 178 182 183 181 183 182 180 179 188 159 170 195 207 216 242 227 221 234 260 247 238 236 239 239 232 241 267 287 313 317 316 311 320 320 317 314 309 320 338 336 325 315
154 149 152 157 169 176 180 184 193 178 168 183 193 224 239 238 232 229 211 236 250 253 249 208 205 232 248 236 251 244 263 289 292 291 297 301 304 305 308 311 312 311 316 325
146 151 150 151 157 168 180 190 190 201 193 190 215 227 239 241 233 225 224 248 248 247 229 212 207 226 237 232 234 233 251 257 264 273 268 280 282 288 288 290 297 297 303 299
163 164 164 169 178 183 191 193 199 219 202 213 228 237 242 249 224 224 233 258 253 221 220 219 224 231 232 235 228 227 234 249 249 253 271 277 282 276 274 276 279 278 282 286
163 166 170 177 188 199 207 206 204 205 214 229 237 239 235 241 238 240 243 246 264 247 238 231 225 221 230 233 244 235 248 261 272 272 266 266 270 277 277 277 285 290 285 285
161 169 183 191 197 209 215 207 213 212 219 222 228 229 228 240 239 242 260 224 230 234 236 238 228 230 238 237 230 238 247 257 267 271 273 274 273 275 272 271 274 269 273 275
171 189 198 204 201 222 235 227 222 226 233 235 229 225 229 244 251 234 246 261 258 252 253 250 237 235 240 239 232 237 246 255 265 267 268 270 270 271 271 273 270 270 270 274
186 184 184 193 214 235 241 258 253 247 240 245 243 240 232 231 234 249 231 243 249 250 253 248 238 240 241 238 235 239 244 244 247 256 260 257 262 264 267 271 272 272 274 267
187 202 212 213 228 231 232 237 246 249 242 249 251 244 243 233 234 244 247 252 252 253 249 243 231 233 242 235 233 238 241 246 244 251 254 259 262 265 264 265 270 270 271 273
205 213 224 248 237 233 233 238 248 255 241 243 256 253 246 249 250 253 251 248 243 241 240 238 233 238 234 232 235 239 243 243 242 242 248 259 263 263 264 264 264 270 269 266